Location: Ariel
(45.9570°N, 122.5700°W)
Time: 14:17:51
(UTC-08:00)

XW-2B - Visible Passes

Search period start: 20 November 2019 00:00
Search period end: 30 November 2019 00:00
Orbit: 508 x 528 km, 97.5° (Epoch: 20 November)

Date Brightness Start Highest point End Pass type
(mag) Time Alt. Az. Time Alt. Az. Time Alt. Az.
20 Nov ? 05:07:25 10° ENE 05:09:21 13° E 05:11:17 10° ESE visible
20 Nov ? 06:40:03 10° N 06:43:44 49° WNW 06:47:25 10° SSW visible
20 Nov ? 17:22:33 10° S 17:26:16 76° WSW 17:30:01 10° NNW visible
21 Nov ? 06:25:52 10° N 06:29:40 74° WNW 06:33:27 10° SSW visible
21 Nov ? 17:08:27 10° SSE 17:12:10 72° ENE 17:15:54 10° N visible
22 Nov ? 06:11:44 10° NNE 06:15:33 76° ESE 06:19:21 10° S visible
22 Nov ? 18:30:39 10° WSW 18:32:28 13° W 18:34:19 10° WNW visible
23 Nov ? 05:57:41 10° NNE 06:01:25 50° E 06:05:08 10° S visible
23 Nov ? 18:15:32 10° SW 18:18:13 19° W 18:20:57 10° NW visible
24 Nov ? 05:43:44 10° NNE 05:47:15 34° E 05:50:45 10° SSE visible
24 Nov ? 18:00:50 10° SSW 18:04:01 27° W 18:07:14 10° NW visible
25 Nov ? 05:29:54 10° NE 05:33:04 24° E 05:36:12 10° SSE visible
25 Nov ? 17:46:19 10° SSW 17:49:49 38° W 17:53:22 10° NNW visible
26 Nov ? 05:16:15 10° NE 05:18:50 17° E 05:21:25 10° SE visible
26 Nov ? 06:49:32 10° N 06:53:06 38° WNW 06:56:40 10° SW visible
26 Nov ? 17:32:00 10° S 17:35:40 58° W 17:39:22 10° NNW visible
27 Nov ? 05:03:02 10° ENE 05:04:35 12° E 05:06:08 10° ESE visible
27 Nov ? 06:35:17 10° N 06:39:02 56° WNW 06:42:47 10° SSW visible
27 Nov ? 17:17:47 10° SSE 17:21:31 87° WSW 17:25:18 10° NNW visible
28 Nov ? 06:21:06 10° N 06:24:56 84° WNW 06:28:46 10° SSW visible
28 Nov ? 17:03:44 10° SSE 17:07:24 63° ENE 17:11:09 10° N visible
28 Nov ? 18:41:21 10° W 18:41:57 10° W 18:42:34 10° W visible
29 Nov ? 06:07:00 10° NNE 06:10:49 66° E 06:14:37 10° S visible
29 Nov ? 18:25:28 10° SW 18:27:40 15° W 18:29:54 10° NW visible
